{"data":{"norad_id":62306,"epoch":"2026-09-21T14:23:49.406496Z","epoch_age_seconds":82556,"freshness":"FRESH","line1":"1 62306U 24239F   26264.59987739  .00018668  00000+0  56213-3 0  9992","line2":"2 62306  53.1619   0.7439 0001100  83.4474 276.6654 15.34408046 99424","mean_motion":15.34408046,"eccentricity":0.00011,"inclination_deg":53.1619,"raan_deg":0.7439,"arg_perigee_deg":83.4474,"mean_anomaly_deg":276.6654,"bstar":0.00056213,"rev_number":9942,"period_min":93.847265970345,"perigee_km":461.92683610814,"apogee_km":463.43181569984,"semimajor_km":6840.816325904,"source":"CELESTRAK","updated_at":"2026-09-22T09:00:49.571644Z"}}